User: anonymous   Login
Location: Unspecified
(0.0000°N, 0.0000°E)
Time: 05:23:54
(UTC+00:00)
Language:

STARLINK-31920 - Orbit

View from above orbital plane
View from above orbital plane
View from above satellite
View from above satellite

Ground track
Ground track

The orbit is defined by the following mean orbital elements,

1 59907U          26145.31858894 +.00000000 +00000-0 +25167-2 0 00000
2 59907  42.9943   9.9168 0021720 255.0382 104.8073 15.49972008    01
Epoch (UTC): 25 May 2026 07:38:46
Eccentricity: 0.0021720
inclination: 42.9943°
perigee height: 402 km
apogee height: 432 km
right ascension of ascending node: 9.9168°
argument of perigee: 255.0382°
revolutions per day: 15.49972008
mean anomaly at epoch: 104.8073°

The dashed part of the orbit path shows where the satellite is in the earth's shadow,  

DLR